| time (UTC) | temp F | wind direction | speed MPH | gust MPH | rain 1hr in | rain 24hr in | rain mn in | humidity % | barometer mb |
| 20260906150135 | 75 | 54 | 2.0 | 6.0 | 0.00 | 0.00 | 0.00 | 48 | 1024.7 |
| 20260906145254 | 74 | 61 | 2.0 | 7.0 | 0.00 | 0.00 | 0.00 | 49 | 1024.9 |
| 20260906144136 | 76 | 75 | 2.0 | 6.0 | 0.00 | 0.00 | 0.00 | 46 | 1024.9 |
| 20260906143159 | 74 | 62 | 1.0 | 3.0 | 0.00 | 0.00 | 0.00 | 48 | 1025.0 |
| 20260906142136 | 74 | 61 | 2.0 | 6.0 | 0.00 | 0.00 | 0.00 | 49 | 1025.0 |
| 20260906141132 | 75 | 56 | 2.0 | 5.0 | 0.00 | 0.00 | 0.00 | 50 | 1025.1 |
| 20260906140133 | 75 | 80 | 2.0 | 6.0 | 0.00 | 0.00 | 0.00 | 50 | 1025.1 |
| 20260906135135 | 74 | 64 | 2.0 | 7.0 | 0.00 | 0.00 | 0.00 | 52 | 1025.1 |
| 20260906134137 | 74 | 62 | 3.0 | 8.0 | 0.00 | 0.00 | 0.00 | 52 | 1025.0 |
| 20260906133135 | 75 | 39 | 2.0 | 5.0 | 0.00 | 0.00 | 0.00 | 51 | 1025.2 |
| 20260906132138 | 74 | 72 | 1.0 | 3.0 | 0.00 | 0.00 | 0.00 | 51 | 1025.4 |
| 20260906131134 | 73 | 76 | 2.0 | 3.0 | 0.00 | 0.00 | 0.00 | 54 | 1025.3 |
| 20260906130137 | 73 | 4 | 3.0 | 7.0 | 0.00 | 0.00 | 0.00 | 53 | 1025.4 |
| 20260906125135 | 73 | 53 | 2.0 | 6.0 | 0.00 | 0.00 | 0.00 | 55 | 1025.5 |
| 20260906124134 | 73 | 30 | 1.0 | 5.0 | 0.00 | 0.00 | 0.00 | 52 | 1025.5 |
| 20260906123135 | 73 | 40 | 2.0 | 5.0 | 0.00 | 0.00 | 0.00 | 53 | 1025.7 |
| 20260906122157 | 73 | 60 | 2.0 | 5.0 | 0.00 | 0.00 | 0.00 | 55 | 1025.7 |
| 20260906121140 | 72 | 46 | 2.0 | 8.0 | 0.00 | 0.00 | 0.00 | 57 | 1025.8 |
| 20260906120141 | 73 | 65 | 2.0 | 6.0 | 0.00 | 0.00 | 0.00 | 57 | 1026.0 |
| 20260906115137 | 72 | 50 | 2.0 | 5.0 | 0.00 | 0.00 | 0.00 | 57 | 1026.0 |
| 20260906114138 | 72 | 56 | 2.0 | 6.0 | 0.00 | 0.00 | 0.00 | 58 | 1026.1 |
| 20260906113137 | 71 | 25 | 2.0 | 7.0 | 0.00 | 0.00 | 0.00 | 58 | 1026.2 |
| 20260906112139 | 71 | 80 | 3.0 | 7.0 | 0.00 | 0.00 | 0.00 | 59 | 1026.4 |
| 20260906111200 | 71 | 63 | 2.0 | 7.0 | 0.00 | 0.00 | 0.00 | 59 | 1026.3 |
| 20260906110139 | 70 | 77 | 2.0 | 6.0 | 0.00 | 0.00 | 0.00 | 59 | 1026.4 |
| 20260906105140 | 70 | 96 | 3.0 | 6.0 | 0.00 | 0.00 | 0.00 | 60 | 1026.4 |
| 20260906104139 | 70 | 77 | 2.0 | 5.0 | 0.00 | 0.01 | 0.00 | 61 | 1026.6 |
| 20260906103142 | 69 | 53 | 2.0 | 5.0 | 0.00 | 0.01 | 0.00 | 61 | 1026.7 |
| 20260906102159 | 68 | 54 | 1.0 | 5.0 | 0.00 | 0.01 | 0.00 | 63 | 1026.9 |
| 20260906101142 | 69 | 91 | 2.0 | 5.0 | 0.00 | 0.01 | 0.00 | 63 | 1026.9 |
| 20260906100138 | 68 | 81 | 2.0 | 6.0 | 0.00 | 0.01 | 0.00 | 65 | 1027.0 |
| 20260906095139 | 68 | 72 | 2.0 | 5.0 | 0.00 | 0.01 | 0.00 | 65 | 1027.0 |
| 20260906094141 | 67 | 76 | 3.0 | 7.0 | 0.00 | 0.03 | 0.00 | 66 | 1027.2 |
| 20260906093140 | 67 | 64 | 2.0 | 5.0 | 0.00 | 0.07 | 0.00 | 66 | 1027.3 |
| 20260906092201 | 68 | 76 | 1.0 | 2.0 | 0.00 | 0.10 | 0.00 | 64 | 1027.1 |
| 20260906091141 | 66 | 63 | 2.0 | 5.0 | 0.00 | 0.16 | 0.00 | 66 | 1027.2 |
| 20260906090141 | 65 | 41 | 2.0 | 6.0 | 0.00 | 0.16 | 0.00 | 67 | 1027.2 |
| 20260906085140 | 65 | 67 | 2.0 | 5.0 | 0.00 | 0.16 | 0.00 | 68 | 1027.2 |
| 20260906084142 | 65 | 48 | 2.0 | 5.0 | 0.00 | 0.16 | 0.00 | 69 | 1027.3 |
| 20260906083144 | 65 | 77 | 2.0 | 6.0 | 0.00 | 0.16 | 0.00 | 69 | 1027.2 |
| 20260906082141 | 65 | 56 | 1.0 | 5.0 | 0.00 | 0.16 | 0.00 | 69 | 1027.2 |
| 20260906081142 | 64 | 72 | 1.0 | 5.0 | 0.00 | 0.16 | 0.00 | 70 | 1027.2 |
| 20260906080112 | 63 | 57 | 2.0 | 5.0 | 0.00 | 0.16 | 0.00 | 71 | 1027.2 |
| 20260906075104 | 63 | 62 | 2.0 | 6.0 | 0.00 | 0.16 | 0.00 | 71 | 1027.0 |
| 20260906074107 | 62 | 78 | 2.0 | 5.0 | 0.00 | 0.16 | 0.00 | 71 | 1026.9 |
| 20260906073227 | 62 | 56 | 2.0 | 5.0 | 0.00 | 0.16 | 0.00 | 72 | 1026.9 |
| 20260906072105 | 62 | 71 | 1.0 | 6.0 | 0.00 | 0.16 | 0.00 | 72 | 1026.9 |
| 20260906071037 | 63 | 85 | 2.0 | 5.0 | 0.00 | 0.16 | 0.00 | 70 | 1026.9 |
| 20260906070037 | 62 | 64 | 1.0 | 5.0 | 0.00 | 0.16 | 0.00 | 73 | 1026.8 |
| 20260906065036 | 61 | 67 | 2.0 | 5.0 | 0.00 | 0.16 | 0.00 | 73 | 1026.8 |
| 20260906064037 | 61 | 73 | 1.0 | 3.0 | 0.00 | 0.16 | 0.00 | 72 | 1026.8 |
| 20260906063037 | 61 | 72 | 0.0 | 1.0 | 0.00 | 0.16 | 0.00 | 84 | 1027.0 |
| 20260906062117 | 60 | 84 | 0.0 | 1.0 | 0.00 | 0.17 | 0.00 | 87 | 1027.1 |
| 20260906061038 | 59 | 56 | 1.0 | 2.0 | 0.00 | 0.17 | 0.00 | 90 | 1026.8 |
| 20260906060038 | 57 | 79 | 0.0 | 1.0 | 0.00 | 0.18 | 0.00 | 97 | 1026.8 |
| 20260906055040 | 56 | 72 | 1.0 | 2.0 | 0.00 | 0.19 | 0.00 | 99 | 1026.6 |
| 20260906054040 | 55 | 41 | 1.0 | 2.0 | 0.00 | 0.19 | 0.00 | 99 | 1026.9 |
| 20260906053040 | 55 | 64 | 1.0 | 1.0 | 0.00 | 0.19 | 0.00 | 99 | 1026.8 |
| 20260906052040 | 54 | 64 | 1.0 | 2.0 | 0.00 | 0.19 | 0.00 | 99 | 1026.7 |
| 20260906051040 | 54 | 113 | 0.0 | 1.0 | 0.00 | 0.19 | 0.00 | 99 | 1026.7 |
| 20260906050100 | 54 | 74 | 1.0 | 2.0 | 0.00 | 0.20 | 0.00 | 99 | 1026.5 |
| 20260906045041 | 54 | 0.0 | 0.0 | 0.00 | 0.22 | 0.00 | 99 | 1026.4 | |
| 20260906044041 | 54 | 0.0 | 0.0 | 0.00 | 0.22 | 0.00 | 99 | 1026.5 | |
| 20260906043042 | 54 | 0.0 | 0.0 | 0.00 | 0.22 | 0.00 | 99 | 1026.5 | |
| 20260906042042 | 54 | 0.0 | 0.0 | 0.00 | 0.22 | 0.00 | 99 | 1026.5 | |
| 20260906041043 | 55 | 0.0 | 0.0 | 0.00 | 0.22 | 0.00 | 99 | 1026.2 | |
| 20260906040043 | 56 | 0.0 | 0.0 | 0.00 | 0.22 | 0.00 | 99 | 1026.1 | |
| 20260906035043 | 56 | 0.0 | 0.0 | 0.00 | 0.22 | 0.00 | 99 | 1026.2 | |
| 20260906034044 | 56 | 0.0 | 0.0 | 0.00 | 0.22 | 0.00 | 99 | 1026.2 | |
| 20260906033045 | 56 | 84 | 0.0 | 2.0 | 0.00 | 0.22 | 0.00 | 99 | 1026.1 |
| 20260906032107 | 56 | 17 | 1.0 | 3.0 | 0.00 | 0.22 | 0.00 | 99 | 1026.1 |
| 20260906031045 | 56 | 0.0 | 1.0 | 0.00 | 0.22 | 0.00 | 99 | 1026.1 | |
| 20260906030225 | 56 | 76 | 0.0 | 1.0 | 0.00 | 0.22 | 0.00 | 99 | 1025.9 |
| 20260906025048 | 56 | 81 | 0.0 | 1.0 | 0.00 | 0.22 | 0.00 | 99 | 1026.0 |
| 20260906024047 | 55 | 0.0 | 1.0 | 0.00 | 0.22 | 0.00 | 99 | 1026.0 | |
| 20260906023107 | 55 | 0.0 | 1.0 | 0.00 | 0.22 | 0.00 | 99 | 1026.1 | |
| 20260906022107 | 55 | 29 | 2.0 | 3.0 | 0.00 | 0.22 | 0.00 | 99 | 1026.0 |
| 20260906021048 | 55 | 68 | 1.0 | 2.0 | 0.00 | 0.22 | 0.00 | 99 | 1026.1 |
| 20260906020049 | 56 | 342 | 2.0 | 3.0 | 0.00 | 0.22 | 0.00 | 99 | 1026.0 |
| 20260906015049 | 56 | 333 | 2.0 | 3.0 | 0.00 | 0.22 | 0.00 | 99 | 1026.0 |
| 20260906014049 | 56 | 339 | 2.0 | 3.0 | 0.00 | 0.22 | 0.00 | 99 | 1025.9 |
| 20260906011053 | 58 | 325 | 3.0 | 5.0 | 0.00 | 0.22 | 0.00 | 96 | 1025.8 |
| 20260906010053 | 58 | 6 | 2.0 | 3.0 | 0.00 | 0.22 | 0.00 | 95 | 1025.9 |
| 20260906005054 | 59 | 22 | 4.0 | 7.0 | 0.00 | 0.22 | 0.00 | 95 | 1025.9 |
| 20260906004054 | 59 | 17 | 3.0 | 7.0 | 0.00 | 0.22 | 0.00 | 95 | 1025.7 |
| 20260906003055 | 60 | 15 | 2.0 | 3.0 | 0.00 | 0.22 | 0.00 | 91 | 1025.7 |
| 20260906002115 | 61 | 63 | 1.0 | 2.0 | 0.00 | 0.22 | 0.00 | 91 | 1025.6 |
| 20260906001056 | 61 | 135 | 1.0 | 1.0 | 0.00 | 0.22 | 0.00 | 91 | 1025.7 |
| 20260906000116 | 61 | 131 | 0.0 | 2.0 | 0.00 | 0.22 | 0.00 | 91 | 1025.7 |
| 20260905235057 | 60 | 128 | 0.0 | 1.0 | 0.00 | 0.22 | 0.00 | 92 | 1025.8 |
| 20260905234058 | 60 | 128 | 1.0 | 1.0 | 0.00 | 0.22 | 0.00 | 92 | 1025.8 |
| 20260905233058 | 60 | 136 | 0.0 | 1.0 | 0.00 | 0.22 | 0.00 | 92 | 1025.7 |
| 20260905232108 | 60 | 129 | 0.0 | 1.0 | 0.00 | 0.22 | 0.00 | 93 | 1025.8 |
| 20260905231058 | 59 | 152 | 1.0 | 2.0 | 0.00 | 0.22 | 0.00 | 96 | 1025.8 |
| 20260905230059 | 59 | 139 | 0.0 | 2.0 | 0.00 | 0.22 | 0.00 | 96 | 1025.7 |
| 20260905225059 | 59 | 0.0 | 0.0 | 0.00 | 0.22 | 0.00 | 96 | 1025.6 | |
| 20260905224101 | 59 | 0.0 | 0.0 | 0.00 | 0.22 | 0.00 | 94 | 1025.5 | |
| 20260905223101 | 60 | 0.0 | 0.0 | 0.00 | 0.22 | 0.00 | 93 | 1025.4 | |
| 20260905222102 | 61 | 148 | 1.0 | 2.0 | 0.00 | 0.22 | 0.00 | 92 | 1025.5 |
| 20260905221121 | 61 | 191 | 1.0 | 3.0 | 0.00 | 0.22 | 0.00 | 91 | 1025.5 |
| 20260905215103 | 61 | 268 | 2.0 | 6.0 | 0.00 | 0.22 | 0.22 | 90 | 1025.3 |
| 20260905214103 | 61 | 80 | 1.0 | 2.0 | 0.00 | 0.22 | 0.22 | 91 | 1025.3 |
| 20260905213103 | 62 | 339 | 0.0 | 2.0 | 0.00 | 0.22 | 0.22 | 90 | 1025.3 |
| 20260905212104 | 62 | 47 | 1.0 | 3.0 | 0.00 | 0.22 | 0.22 | 90 | 1025.2 |
| 20260905211103 | 61 | 60 | 1.0 | 2.0 | 0.00 | 0.22 | 0.22 | 92 | 1025.1 |
| 20260905210104 | 61 | 63 | 1.0 | 3.0 | 0.00 | 0.22 | 0.22 | 92 | 1025.1 |
| 20260905205104 | 61 | 57 | 2.0 | 3.0 | 0.00 | 0.22 | 0.22 | 92 | 1025.0 |
| 20260905204125 | 62 | 72 | 1.0 | 3.0 | 0.00 | 0.22 | 0.22 | 91 | 1025.0 |
| 20260905203037 | 63 | 72 | 1.0 | 3.0 | 0.00 | 0.22 | 0.22 | 89 | 1024.9 |
| 20260905202038 | 64 | 59 | 1.0 | 3.0 | 0.00 | 0.22 | 0.22 | 86 | 1024.7 |
| 20260905201039 | 64 | 353 | 2.0 | 5.0 | 0.00 | 0.22 | 0.22 | 85 | 1024.7 |
| 20260905200038 | 65 | 296 | 3.0 | 6.0 | 0.00 | 0.22 | 0.22 | 84 | 1024.7 |
| 20260905195039 | 65 | 39 | 2.0 | 7.0 | 0.00 | 0.22 | 0.22 | 83 | 1024.5 |
| 20260905194040 | 66 | 264 | 4.0 | 11.0 | 0.00 | 0.22 | 0.22 | 82 | 1024.3 |
| 20260905193041 | 66 | 258 | 5.0 | 14.0 | 0.00 | 0.22 | 0.22 | 82 | 1024.2 |
| 20260905192040 | 66 | 256 | 4.0 | 11.0 | 0.00 | 0.22 | 0.22 | 83 | 1024.1 |
| 20260905191120 | 66 | 243 | 3.0 | 8.0 | 0.00 | 0.22 | 0.22 | 85 | 1023.9 |
| 20260905185042 | 67 | 187 | 3.0 | 8.0 | 0.00 | 0.22 | 0.22 | 85 | 1023.7 |
| 20260905184101 | 67 | 235 | 5.0 | 11.0 | 0.00 | 0.22 | 0.22 | 85 | 1023.6 |
| 20260905183042 | 67 | 219 | 5.0 | 10.0 | 0.00 | 0.22 | 0.22 | 86 | 1023.5 |
| 20260905182102 | 66 | 198 | 3.0 | 8.0 | 0.00 | 0.22 | 0.22 | 88 | 1023.3 |
| 20260905181043 | 66 | 185 | 3.0 | 7.0 | 0.00 | 0.22 | 0.22 | 89 | 1023.2 |
| 20260905180044 | 66 | 206 | 2.0 | 6.0 | 0.00 | 0.22 | 0.22 | 88 | 1023.1 |
| 20260905175044 | 67 | 216 | 2.0 | 7.0 | 0.00 | 0.22 | 0.22 | 87 | 1023.2 |
| 20260905174104 | 67 | 185 | 2.0 | 5.0 | 0.00 | 0.22 | 0.22 | 87 | 1023.1 |
| 20260905173045 | 67 | 202 | 2.0 | 5.0 | 0.00 | 0.22 | 0.22 | 86 | 1022.9 |
| 20260905172045 | 68 | 213 | 3.0 | 6.0 | 0.00 | 0.22 | 0.22 | 85 | 1022.9 |
| 20260905171114 | 69 | 206 | 2.0 | 6.0 | 0.00 | 0.22 | 0.22 | 83 | 1022.9 |
| 20260905170046 | 69 | 224 | 3.0 | 7.0 | 0.00 | 0.22 | 0.22 | 83 | 1022.9 |
| 20260905165046 | 69 | 191 | 3.0 | 8.0 | 0.00 | 0.22 | 0.22 | 82 | 1022.9 |
| 20260905164107 | 70 | 212 | 3.0 | 7.0 | 0.00 | 0.22 | 0.22 | 81 | 1022.9 |
| 20260905163047 | 70 | 210 | 2.0 | 7.0 | 0.00 | 0.22 | 0.22 | 79 | 1022.7 |
| 20260905162048 | 70 | 213 | 2.0 | 9.0 | 0.00 | 0.22 | 0.22 | 79 | 1022.8 |